CZ-3C DEB, 42470

Orbit data source: Space-Track

CZ-3C DEB, 42470 is space debris in HEO originally from a launch on Sun, 31 Oct 2010 UTC launched from the Xichang Space Center, China (XSC). Debris objects in space refer to the collection of defunct objects orbiting the Earth. Examples of debris include non-operational satellites, rocket bodies, and fragments generated from explosions, collisions, or faulty payload assembly.

Loading next visibility...
Identifier
42470, 2010-057BK
Orbit
HEO
Country
Flag of CNCN / PRC
Related business
Manufacturer
CALT
Mission
Spacecraft
Bus & Motor
Unknown
Mass
Unknown
Launch date (UTC)
2010-10-31 (15 years ago)
Launch vehicle
Unknown
Launch site
Xichang Space Center, China (XSC)
Object type
Payload
Rocket body
Debris
Shape & HBR
Unknown
Radar Cross Section
Medium (>0.1 m² and <1 m²)

Expand to show TLE details & history
Last TLE update: 1 day ago

TLE from 1 day ago
0 CZ-3C DEB
1 42470U 10057BK  25260.54783695  .00015761  00000-0  22873-1 0  9995
2 42470  21.1389  44.1382 6755142 151.5669 273.5595  2.88672602113954
Epoch: 2025-09-17T13:08Z
TLE epoch observation values (Epoch: 2025-09-17T13:08:53.112Z)
Latitude
-0.00016°
Longitude
-149.78483°
Altitude
21,481.878 km
Speed
3.08 km/s
True Right ascension
02h 56m 38s
True Declination
0° 00' 01"
Sunlit
Object was in daylight at epoch
Visualization orbit readout
Latitude
Unknown
Longitude
Unknown
Altitude
Unknown
Speed
Unknown
Apparent Right ascension
Unknown
Apparent Declination
Unknown
Sunlit
N/A
Visualization observer readout
Local Sidereal Time
10:50:57
Azimuth
Unknown
Elevation
Unknown
Doppler factor
Unknown
Orbital elements
Apogee altitude
28,538.707 km
Perigee altitude
383.978 km
Semi-major axis
20,839.48 km
Eccentricity
0.67551
Inclination
21.1389°
RAAN
44.1382°
Arg. of periapsis
151.5669°
True anomaly
208.52843°
Mean anomaly
273.5595°
Eccentric anomaly
240.03047°
Mean motion
0.72146 °/min
Orbital period
498.99 mins
BSTAR
0.022873
Loading maneuver chart data...
Computing Atmospheric mass density...
Loading historical data...
Loading historical data...
Loading historical data...
Loading historical data...
Loading historical data...
Loading historical data...
Loading historical data...

Documentation

Showing up to 5 results
|